Wind_Speed
23 23 23 24 24 24 24 24 24 23 22 21 20 21 21 21 21 21 20 19 19 18 19 17 17 17 17 16 14 13 13 12 12 12 12 11 11 11 10 10 10 10 10 10
24 24 25 25 24 24 24 25 25 25 23 22 22 22 22 21 21 21 20 20 19 19 19 19 18 17 17 17 16 15 14 13 14 13 13 12 12 11 11 11 11 11 11 11
25 24 26 25 23 24 24 24 25 25 24 23 23 24 23 23 22 21 20 20 20 20 19 19 18 18 17 17 17 16 15 15 15 15 14 14 13 12 12 12 12 12 12 12
26 25 26 23 22 23 24 24 24 24 23 23 23 24 24 24 22 21 21 20 20 20 20 19 19 19 19 19 18 17 16 16 16 16 15 14 14 13 13 13 13 13 13 12
27 26 25 23 22 23 24 24 23 23 23 22 22 23 24 23 23 22 21 20 20 20 20 20 21 21 21 20 20 19 18 17 17 16 16 15 15 14 14 14 13 13 13 13
27 27 26 24 24 24 25 24 24 24 23 23 24 24 22 22 23 22 21 22 21 20 20 20 22 22 21 21 21 20 19 19 18 18 17 16 16 16 16 15 14 14 14 15
27 28 27 25 25 25 25 24 24 24 25 25 25 24 22 22 22 21 21 22 21 21 20 20 21 22 22 22 22 22 21 20 20 19 19 18 17 17 17 17 16 16 15 16
28 29 27 26 27 27 27 26 26 25 25 25 26 25 24 23 22 21 21 21 21 21 21 21 20 22 23 22 23 23 22 21 21 21 20 19 18 18 17 17 17 17 17 16
28 28 27 27 27 28 28 28 28 27 27 27 26 25 25 24 23 23 22 22 21 21 21 22 22 21 22 23 24 23 23 22 21 21 20 20 19 19 19 18 18 18 18 17
28 27 27 28 28 28 29 30 29 28 28 28 27 26 25 24 24 24 22 22 22 22 22 22 23 22 21 22 24 24 23 23 22 22 21 21 21 20 20 19 18 18 18 17
27 26 27 27 28 29 29 30 30 29 28 28 27 27 25 24 25 25 24 23 23 23 23 22 22 23 23 23 24 24 24 23 24 24 23 23 22 22 21 21 20 19 19 18
26 26 28 27 27 29 30 29 29 29 28 28 28 27 27 27 26 26 25 25 24 24 25 24 24 23 23 23 24 25 25 24 24 24 24 24 24 23 23 22 22 21 21 21
27 28 28 27 28 29 30 29 29 29 28 27 28 27 27 28 28 27 27 27 26 25 25 26 26 25 25 25 25 26 26 26 25 25 25 25 25 25 24 24 23 23 22 22
27 28 28 28 28 29 30 29 29 28 28 28 28 28 28 29 29 28 28 28 28 27 27 27 27 27 26 26 26 27 27 28 27 27 26 26 26 25 25 25 24 24 24 24
26 27 27 27 28 28 28 28 28 28 28 27 28 28 28 28 28 28 29 29 29 28 28 27 28 27 27 27 28 28 28 28 29 29 28 27 26 26 26 26 26 25 25 25
25 26 26 27 27 27 27 28 28 28 27 27 27 27 27 27 27 27 28 28 29 28 28 27 28 28 28 27 27 28 28 29 29 30 30 29 28 27 27 27 27 26 26 26
25 26 26 26 27 27 27 27 28 28 27 26 26 26 26 27 27 28 27 28 28 28 28 28 28 28 28 28 28 28 29 30 30 31 31 31 29 29 29 29 28 27 27 27
25 25 25 26 26 26 26 26 27 27 27 25 26 26 26 27 28 28 27 26 27 27 27 28 28 28 28 28 29 29 29 30 31 32 32 32 31 30 30 30 29 29 28 28
25 25 25 26 26 26 26 26 26 26 26 25 26 27 27 26 27 27 28 27 27 27 27 27 28 28 28 29 30 29 29 30 31 32 33 32 32 31 31 31 31 30 30 29
25 25 25 26 26 25 25 25 25 25 25 25 25 26 27 27 26 26 28 29 29 29 29 29 29 29 29 29 29 29 29 30 31 32 33 33 33 32 32 32 32 32 30 30
24 25 25 25 25 24 24 24 24 24 25 25 26 26 26 26 26 26 27 28 28 29 29 29 29 30 30 30 30 30 30 31 32 32 32 33 33 33 33 33 33 33 32 31
25 24 24 24 24 23 23 23 23 23 24 24 25 25 26 26 26 26 26 27 28 28 28 28 29 29 30 30 31 31 31 31 31 32 32 33 33 33 33 33 33 33 33 33
25 24 24 24 24 24 23 23 24 23 23 24 25 25 25 25 25 26 26 26 27 27 27 27 28 29 29 29 30 30 30 31 32 32 32 33 33 33 33 33 33 34 33 33
24 24 24 24 24 24 25 24 24 23 23 23 24 25 25 25 25 26 26 27 27 27 27 28 28 29 29 29 28 29 30 30 31 32 33 33 34 34 34 34 35 35 34 34
24 24 24 24 24 24 24 25 24 24 24 24 25 25 26 25 25 26 27 28 28 28 28 27 28 29 29 29 29 30 30 31 32 33 33 34 34 35 35 35 35 34 34 34
25 25 25 25 25 24 24 24 24 23 23 24 24 25 26 26 26 26 26 27 28 28 27 27 29 29 29 29 29 30 31 32 32 33 33 34 34 35 35 35 35 34 34 34
26 26 26 25 24 24 23 24 24 24 24 25 25 25 25 25 25 25 25 25 26 27 27 28 29 29 29 29 30 30 31 31 32 33 34 34 34 34 33 34 34 34 35 35
Wind_Direction
268 269 269 270 270 270 270 272 272 272 273 271 271 270 271 272 271 269 268 266 264 264 261 261 259 257 255 254 254 254 256 255 251 251 251 251 252 252 252 251 249 251 253 250
269 270 270 270 272 271 270 271 272 271 272 272 270 269 270 271 272 272 269 263 261 261 259 258 256 253 252 251 250 249 251 251 248 249 251 249 250 251 250 251 250 251 251 249
268 267 269 271 272 271 271 271 273 272 271 271 269 268 269 270 270 272 271 263 259 258 256 256 254 250 249 249 247 246 247 246 246 249 250 248 246 247 248 250 250 249 249 249
269 269 270 272 271 272 272 271 273 273 272 271 270 269 269 270 270 270 267 263 261 261 257 255 250 248 250 248 245 245 245 243 246 250 248 246 244 244 246 250 251 249 249 248
270 272 273 273 272 272 272 271 271 273 273 271 270 269 270 270 268 266 264 263 260 261 260 253 248 248 248 247 245 245 244 244 246 249 246 244 243 244 246 248 250 250 250 250
270 273 276 277 273 272 273 272 271 270 270 269 269 269 269 268 266 264 263 261 258 258 260 256 250 246 246 246 244 244 243 243 245 247 245 242 242 245 247 248 249 250 250 250
270 272 274 276 275 273 273 274 273 271 271 270 269 269 267 265 263 262 261 259 258 257 256 257 256 251 246 244 245 245 244 244 244 244 242 241 241 243 246 247 248 249 250 251
269 270 273 274 273 273 274 274 274 272 270 268 268 267 266 265 261 259 259 258 259 258 257 257 258 254 249 243 242 244 244 244 244 242 241 240 240 243 244 245 247 250 251 251
271 272 272 271 272 272 272 273 273 272 270 268 268 265 267 265 260 257 256 257 258 259 259 257 256 255 251 247 241 240 241 243 244 243 242 241 243 244 244 246 248 249 251 253
271 272 271 271 271 272 272 272 273 272 270 268 266 264 265 261 258 257 257 257 258 259 260 259 256 254 252 248 243 239 240 241 242 242 242 242 243 245 246 246 248 249 251 253
273 272 269 270 271 271 272 271 271 271 269 266 264 262 261 259 257 256 256 255 256 259 258 258 257 254 251 250 245 242 241 241 242 242 242 241 243 244 246 246 247 248 250 252
274 274 271 271 271 271 271 271 270 268 267 264 262 260 257 257 257 257 255 255 256 258 257 256 257 255 251 249 247 245 244 242 242 241 240 239 242 243 245 245 247 248 250 252
274 273 273 271 270 269 270 269 268 268 266 263 261 259 256 256 255 254 254 254 256 258 258 256 255 254 251 250 249 247 246 245 243 242 241 242 242 243 245 247 248 250 250 252
274 274 273 273 271 270 270 269 268 267 266 263 261 259 258 257 253 252 253 254 254 255 257 257 255 254 252 250 248 247 247 245 244 243 243 244 244 244 245 247 249 251 252 252
276 277 276 274 272 272 270 269 269 267 266 263 262 260 257 255 252 251 252 253 253 254 255 256 254 253 252 251 249 248 246 245 246 245 243 244 244 245 246 248 250 252 253 253
277 277 277 274 272 271 270 269 268 267 266 264 262 259 257 255 253 252 251 250 252 254 254 254 253 251 251 252 251 250 248 247 246 245 244 244 246 247 248 249 251 252 253 254
279 280 280 277 274 272 270 268 267 267 267 264 261 260 258 256 254 253 253 252 252 251 252 253 253 251 250 251 251 251 250 249 246 245 245 245 246 247 249 249 250 251 252 254
281 282 282 280 278 276 271 269 268 268 266 262 260 259 257 256 255 255 254 253 253 252 252 253 253 252 251 251 251 251 250 248 246 245 246 247 246 246 248 249 249 250 252 253
283 283 282 281 279 277 273 271 271 269 265 262 260 258 259 258 256 254 253 252 253 254 253 253 253 252 251 252 252 251 249 248 246 245 244 245 247 246 247 248 249 251 252 253
283 284 284 281 279 277 273 272 271 268 264 261 261 260 260 260 258 257 255 255 255 256 256 255 254 253 253 253 251 251 250 248 247 244 244 245 247 247 247 248 250 252 253 254
284 285 285 281 278 275 274 273 272 268 264 262 261 261 261 261 259 257 256 256 256 256 257 257 256 254 253 252 250 250 249 247 247 246 246 246 246 247 249 250 251 251 253 254
284 285 284 282 277 274 274 274 273 270 266 262 261 262 263 262 261 259 258 257 257 257 257 257 256 255 253 252 250 249 248 247 246 245 245 246 246 246 247 249 251 252 253 255
283 284 284 282 278 276 276 275 273 270 266 264 263 264 264 264 263 260 257 258 259 258 258 257 258 257 254 251 249 248 247 247 247 246 246 247 246 245 246 249 252 254 254 256
282 283 285 285 282 277 276 276 274 271 267 264 264 265 266 267 265 262 260 259 259 260 259 260 258 255 253 250 249 248 247 247 247 245 245 246 246 246 248 250 252 253 254 256
280 283 286 287 285 281 275 273 272 271 268 266 266 267 269 270 268 265 261 259 259 260 260 259 256 254 253 252 251 250 248 247 247 247 247 248 248 248 248 249 251 252 254 256
280 281 283 284 285 284 279 273 270 268 266 266 268 270 271 271 270 267 264 260 258 259 260 259 256 254 254 254 253 252 251 250 250 249 249 249 249 248 248 249 250 252 254 256
281 280 280 281 282 282 281 279 275 270 268 269 271 272 272 271 269 267 265 263 262 262 261 259 256 255 255 254 254 253 253 253 252 251 250 249 249 249 248 249 250 252 254 255
Height
5796 5796 5796 5796 5797 5797 5796 5796 5796 5797 5798 5799 5798 5797 5797 5796 5796 5797 5798 5799 5800 5800 5801 5801 5802 5802 5803 5803 5804 5805 5806 5807 5808 5808 5809 5810 5811 5812 5812 5813 5814 5814 5815 5815
5789 5789 5789 5789 5790 5789 5789 5789 5789 5790 5791 5792 5791 5790 5790 5790 5790 5790 5791 5792 5793 5794 5794 5795 5796 5796 5797 5798 5799 5801 5802 5803 5804 5805 5806 5807 5807 5808 5809 5810 5811 5811 5812 5812
5782 5782 5781 5782 5784 5782 5782 5782 5782 5782 5785 5784 5784 5783 5783 5784 5784 5784 5784 5785 5786 5787 5788 5789 5790 5791 5792 5793 5794 5796 5797 5799 5800 5801 5802 5803 5804 5805 5806 5807 5808 5808 5809 5810
5774 5775 5775 5778 5776 5776 5775 5776 5776 5776 5776 5777 5777 5777 5777 5777 5777 5777 5777 5778 5779 5780 5781 5782 5784 5785 5786 5788 5789 5791 5793 5794 5795 5797 5798 5799 5800 5801 5802 5803 5804 5805 5806 5806
5766 5766 5767 5770 5769 5768 5768 5769 5769 5769 5769 5770 5769 5770 5770 5770 5770 5770 5770 5771 5773 5774 5775 5776 5778 5779 5781 5782 5784 5786 5788 5789 5791 5792 5793 5795 5796 5797 5798 5799 5800 5801 5802 5803
5759 5759 5760 5763 5762 5761 5762 5762 5762 5762 5762 5762 5762 5762 5764 5763 5763 5763 5764 5765 5766 5767 5769 5770 5771 5772 5775 5777 5779 5781 5782 5784 5785 5787 5788 5790 5791 5793 5794 5795 5796 5797 5798 5799
5752 5751 5752 5755 5754 5754 5755 5756 5755 5754 5755 5755 5755 5755 5756 5756 5756 5756 5757 5758 5759 5761 5762 5763 5765 5766 5768 5770 5772 5774 5776 5778 5780 5782 5783 5785 5787 5788 5789 5791 5792 5793 5794 5794
5745 5745 5748 5747 5746 5746 5746 5746 5746 5746 5746 5746 5746 5747 5748 5748 5749 5749 5750 5752 5753 5754 5755 5757 5758 5759 5761 5763 5766 5768 5770 5772 5774 5776 5778 5780 5781 5783 5784 5786 5787 5788 5789 5790
5738 5739 5739 5738 5737 5738 5737 5738 5738 5738 5738 5738 5739 5739 5740 5740 5741 5741 5743 5745 5746 5747 5749 5750 5751 5752 5754 5756 5758 5761 5763 5765 5768 5770 5772 5774 5776 5777 5779 5780 5782 5783 5784 5785
5729 5729 5730 5730 5729 5729 5729 5729 5729 5729 5730 5730 5731 5731 5732 5732 5733 5734 5736 5737 5739 5740 5742 5743 5744 5745 5747 5749 5751 5753 5756 5759 5761 5763 5765 5768 5770 5772 5773 5775 5776 5778 5779 5780
5720 5721 5721 5721 5721 5721 5720 5720 5720 5720 5720 5721 5722 5723 5724 5725 5725 5727 5728 5730 5731 5733 5734 5735 5737 5738 5740 5741 5744 5746 5749 5751 5754 5756 5759 5761 5763 5765 5767 5769 5770 5772 5773 5775
5713 5713 5712 5713 5712 5712 5711 5711 5711 5711 5712 5712 5713 5714 5715 5716 5717 5718 5720 5721 5723 5725 5726 5728 5729 5731 5732 5734 5736 5739 5741 5744 5746 5749 5751 5754 5756 5759 5760 5762 5764 5766 5767 5769
5704 5703 5703 5703 5702 5702 5701 5702 5702 5702 5702 5703 5704 5705 5706 5707 5708 5710 5711 5713 5714 5716 5718 5719 5721 5723 5724 5726 5729 5731 5734 5737 5739 5741 5744 5747 5749 5751 5754 5756 5757 5759 5761 5762
5695 5694 5694 5694 5693 5693 5692 5692 5692 5692 5692 5693 5693 5695 5696 5697 5699 5700 5702 5704 5706 5707 5709 5710 5712 5714 5716 5718 5720 5723 5726 5729 5731 5734 5737 5739 5741 5744 5746 5748 5750 5752 5754 5755
5687 5685 5685 5684 5684 5683 5683 5682 5683 5683 5683 5683 5684 5684 5686 5688 5689 5691 5693 5695 5696 5698 5700 5701 5703 5705 5707 5709 5712 5714 5717 5720 5723 5726 5728 5731 5733 5736 5738 5741 5743 5745 5746 5748
5679 5677 5676 5675 5674 5674 5673 5673 5673 5673 5673 5674 5675 5675 5677 5678 5680 5682 5683 5685 5687 5689 5691 5692 5694 5696 5698 5701 5703 5706 5709 5712 5714 5717 5720 5723 5725 5728 5730 5733 5735 5737 5738 5740
5671 5669 5668 5666 5665 5665 5664 5664 5664 5664 5665 5665 5666 5667 5668 5669 5671 5673 5674 5676 5678 5680 5682 5684 5685 5687 5690 5692 5694 5697 5700 5703 5706 5708 5711 5714 5717 5719 5722 5724 5726 5728 5730 5732
5662 5661 5659 5658 5657 5656 5655 5655 5655 5656 5656 5656 5657 5658 5659 5660 5662 5664 5665 5667 5669 5671 5673 5675 5677 5679 5681 5683 5685 5688 5690 5693 5696 5699 5702 5705 5708 5710 5712 5715 5717 5720 5722 5723
5655 5653 5652 5650 5649 5647 5647 5647 5647 5647 5647 5648 5649 5650 5651 5652 5654 5655 5657 5659 5660 5662 5665 5667 5668 5670 5672 5674 5676 5678 5681 5684 5687 5689 5693 5696 5698 5701 5703 5706 5708 5710 5713 5714
5647 5646 5644 5642 5641 5640 5639 5638 5638 5638 5639 5640 5641 5642 5643 5645 5646 5647 5648 5650 5652 5653 5656 5657 5659 5661 5663 5665 5667 5669 5672 5675 5677 5680 5683 5686 5689 5691 5694 5697 5699 5701 5703 5705
5640 5638 5636 5635 5633 5632 5631 5631 5630 5631 5631 5632 5633 5634 5635 5636 5637 5638 5639 5641 5643 5644 5646 5648 5650 5652 5654 5656 5658 5660 5663 5665 5668 5671 5674 5676 5679 5682 5685 5687 5690 5692 5694 5696
5633 5631 5630 5628 5627 5626 5625 5624 5624 5624 5624 5625 5626 5627 5627 5628 5629 5630 5631 5632 5634 5635 5636 5638 5640 5643 5644 5646 5648 5650 5653 5655 5658 5661 5664 5667 5670 5672 5675 5678 5680 5682 5684 5686
5626 5625 5623 5622 5620 5620 5619 5618 5618 5618 5618 5618 5619 5619 5619 5620 5620 5621 5623 5624 5625 5627 5628 5630 5631 5633 5634 5636 5638 5641 5643 5646 5648 5651 5654 5657 5660 5662 5665 5668 5670 5672 5674 5676
5620 5618 5617 5615 5614 5613 5612 5612 5611 5611 5611 5611 5612 5612 5612 5612 5612 5613 5614 5616 5617 5618 5619 5621 5622 5623 5625 5627 5629 5631 5634 5636 5638 5641 5644 5647 5649 5652 5655 5657 5660 5662 5663 5665
5613 5612 5610 5609 5607 5606 5605 5604 5604 5604 5604 5605 5605 5605 5604 5604 5604 5605 5606 5607 5607 5609 5610 5611 5613 5614 5616 5618 5620 5622 5624 5626 5628 5631 5633 5636 5638 5641 5644 5646 5648 5651 5653 5654
5606 5605 5604 5602 5601 5599 5598 5597 5597 5597 5597 5598 5598 5598 5597 5597 5597 5597 5597 5598 5599 5600 5601 5603 5604 5605 5606 5608 5610 5612 5613 5616 5618 5620 5622 5625 5627 5629 5632 5635 5637 5639 5641 5643
5599 5598 5596 5595 5594 5593 5592 5591 5590 5590 5590 5590 5590 5590 5590 5589 5589 5589 5589 5590 5591 5592 5593 5593 5594 5596 5597 5598 5600 5601 5603 5605 5607 5609 5611 5613 5616 5618 5621 5623 5626 5628 5630 5632